weather.gov     
National Weather Service

Regional Weather Roundup
NWS Homepage
This page is being discontinued on March 12, 2014.
The same data is available at this site. Please update your bookmarks.
Thank you, and we apologize for the inconvenience.
Please send an email to SR-SRH.Webmaster@noaa.gov with any concerns.


Current Version
Previous Version:    01  02  03  04  05  06  07  08  09  10  11  12  13  14  15  16  17  18  19  20  21  22  23  24  25  26  
[Printable]
061
ASUS46 KPQR 182010
RWROR

OREGON REGIONAL WEATHER ROUNDUP
NATIONAL WEATHER SERVICE PORTLAND OR
100 PM PDT FRI APR 18 2014

NOTE: "FAIR" INDICATES FEW OR NO CLOUDS BELOW 12,000 FEET WITH
NO SIGNIFICANT WEATHER AND/OR OBSTRUCTIONS TO VISIBILITY.

ORZ001>013-182100-
NORTHWEST OREGON


CITY           SKY/WX    TMP DP  RH WIND       PRES   REMARKS
ASTORIA        CLOUDY    54  40  59 N8        30.12F
NEWPORT        MOSUNNY   57  43  58 E6        30.12F
PORTLAND       PTSUNNY   56  34  43 VRB5      30.16F
VANCOUVER WA   MOSUNNY   55  36  48 W6        30.15F
SCAPPOOSE      MOSUNNY   55  41  59 VRB7      30.15F
HILLSBORO      MOSUNNY   55  35  47 CALM      30.14F
AURORA         SUNNY     56  34  43 VRB3      30.15F
MCMINNVILLE    PTSUNNY   55  40  56 E8        30.15F
SALEM          SUNNY     56  37  49 N6        30.12F
CORVALLIS      SUNNY     57  37  47 NE10      30.12F
EUGENE         PTSUNNY   56  43  61 N14       30.11F
$$

ORZ021-028-182100-
SOUTHWEST OREGON


CITY           SKY/WX    TMP DP  RH WIND       PRES   REMARKS
NORTH BEND     MOSUNNY   59  50  72 N8        30.06F
BROOKINGS      CLEAR     58  43  57 W6        30.02F
ROSEBURG       MOSUNNY   58  43  57 N9        30.06F
SEXTON SUMMIT  SUNNY     51  39  63 CALM      30.02S
MEDFORD        MOSUNNY   60  41  49 VRB3      30.01F
$$

ORZ009-041-182100-
COLUMBIA GORGE


CITY           SKY/WX    TMP DP  RH WIND       PRES   REMARKS
TROUTDALE      PTSUNNY   55  34  45 VRB3      30.15F
THE DALLES     SUNNY     58  35  42 NW18G25   30.10F
$$

ORZ029>031-042>050-061>064-182100-
EASTERN OREGON


CITY           SKY/WX    TMP DP  RH WIND       PRES   REMARKS
REDMOND        SUNNY     54  13  19 VRB3      30.04F
BEND           CLEAR     52  12  20 N5        30.04F
KLAMATH FALLS  SUNNY     56  35  45 VRB3      30.02F
LAKEVIEW       SUNNY     57  18  21 SW3       30.04F
HERMISTON      MOSUNNY   59  30  33 W18G25    30.06F
PENDLETON      MOSUNNY   54  30  40 W22       30.05F
JOHN DAY       CLEAR     52  21  30 SW10G16   30.05S
MEACHAM        MOSUNNY   47  24  40 VRB5      30.03S
LA GRANDE      SUNNY     54  25  32 N6        30.02F
BAKER CITY     MOSUNNY   51  26  37 VRB7      30.02F
BURNS          SUNNY     52  23  32 MISG      30.04F
ROME             N/A     58  26  29 E8        30.00F
ONTARIO        MOSUNNY   61  24  24 W9        30.02F
$$




U.S. Dept. of Commerce
NOAA National Weather Service
1325 East West Highway
Silver Spring, MD 20910
E-mail: w-nws.webmaster@noaa.gov
Page last modified: May 16, 2007
NATIONAL WEATHER SERVICE: for Safety, for Work, for Fun - FOR LIFE